This is the latest recevied weather packets stored in our database for station/object N3WXO-1. If no packets are shown the sender has not sent any weather packets the latest 10 day(s).
| Time | Temp. | Humidity | Pressure | Rain* | Wind** | Luminosity | Snow |
|---|---|---|---|---|---|---|---|
| 1777758927 | 12.78° C | 48% | 1011.6 hPa | 0 mm | - | 67 W/m² | - |
| 1777758623 | 12.78° C | 46% | 1011.6 hPa | 0 mm | - | 81 W/m² | - |
| 1777758320 | 12.78° C | 46% | 1011.7 hPa | 0 mm | - | 107 W/m² | - |
| 1777758037 | 12.78° C | 45% | 1011.6 hPa | 0 mm | - | 65 W/m² | - |
| 1777757731 | 12.78° C | 44% | 1011.6 hPa | 0 mm | - | 102 W/m² | - |
| 1777757431 | 12.78° C | 45% | 1011.6 hPa | 0 mm | - | 311 W/m² | - |
| 1777757128 | 12.78° C | 46% | 1011.4 hPa | 0 mm | - | 83 W/m² | - |
| 1777756825 | 12.78° C | 46% | 1011.2 hPa | 0 mm | - | 70 W/m² | - |
| 1777756520 | 12.78° C | 45% | 1011.2 hPa | 0 mm | - | 69 W/m² | - |
| 1777756217 | 13.33° C | 45% | 1011.1 hPa | 0 mm | - | 70 W/m² | - |
| 1777755933 | 13.33° C | 43% | 1011.1 hPa | 0 mm | - | 79 W/m² | - |
| 1777755630 | 13.89° C | 44% | 1011.1 hPa | 0 mm | - | 74 W/m² | - |
| 1777755330 | 13.89° C | 42% | 1011 hPa | 0 mm | - | 91 W/m² | - |
| 1777755026 | 13.89° C | 42% | 1011.1 hPa | 0 mm | - | 369 W/m² | - |
| 1777754723 | 13.89° C | 41% | 1011.1 hPa | 0 mm | - | 77 W/m² | - |
| 1777754419 | 13.89° C | 44% | 1011.1 hPa | 0 mm | - | 91 W/m² | - |
| 1777754135 | 13.89° C | 44% | 1011.2 hPa | 0 mm | - | 364 W/m² | - |
| 1777753832 | 13.33° C | 44% | 1011.2 hPa | 0 mm | - | 703 W/m² | - |
| 1777753529 | 13.33° C | 44% | 1011.3 hPa | 0 mm | - | 151 W/m² | - |
| 1777753228 | 13.33° C | 45% | 1011.3 hPa | 0 mm | - | 151 W/m² | - |
| 1777752924 | 13.33° C | 45% | 1011.3 hPa | 0 mm | - | 146 W/m² | - |
| 1777752621 | 13.89° C | 45% | 1011.3 hPa | 0 mm | - | 165 W/m² | - |
| 1777752317 | 13.89° C | 45% | 1011.3 hPa | 0 mm | - | 156 W/m² | - |
| 1777752034 | 13.89° C | 44% | 1011.4 hPa | 0 mm | - | 188 W/m² | - |
| 1777751730 | 13.89° C | 44% | 1011.4 hPa | 0 mm | - | 185 W/m² | - |
* Rain latest hour (hover to see other rain measurements)
** Current wind speed in m/s (hover to see current wind gust speed)